GFSGBSN_700_spd_159.txt.gz
Wind_Speed
9 9 9 9 8 8 8 8 8 8 7 7 7 6 6 6 5 5 5 5 5 4 4 4 3 2 1 3 9 6 3 12 20 23 22 21 17 11 4 6 13 10 12 4 5 5 12
9 10 9 9 9 9 9 9 10 10 10 9 9 9 9 9 8 7 7 6 6 6 6 5 3 2 1 3 7 10 7 8 17 19 23 23 16 9 5 3 8 8 12 6 9 5 8
10 10 10 10 10 10 10 10 10 10 11 11 11 11 11 11 11 11 10 9 8 8 7 6 5 2 2 6 4 5 7 8 14 19 22 21 14 11 8 1 8 3 5 5 6 8 4
10 10 10 11 11 10 10 10 10 11 12 12 12 12 12 12 12 13 13 13 12 12 11 9 6 4 5 4 4 6 6 8 14 20 23 20 17 15 8 2 5 6 8 9 9 11 8
10 10 10 11 11 11 11 11 11 12 13 13 13 13 14 14 13 14 14 14 14 14 14 13 9 6 6 3 5 7 9 11 14 19 24 21 19 20 16 6 10 10 11 14 10 12 16
12 12 12 12 12 12 12 12 13 13 13 13 14 14 14 14 13 14 15 15 15 15 17 15 13 9 8 9 9 7 9 12 14 21 28 23 20 24 21 14 12 11 11 11 11 15 13
14 14 13 13 13 13 12 12 12 13 13 14 14 14 14 13 11 12 13 14 14 17 18 14 12 5 13 13 8 10 12 16 21 21 30 27 24 28 21 19 15 12 11 15 14 19 18
13 13 13 14 14 15 14 14 13 13 13 13 13 13 13 12 9 10 11 13 15 17 14 12 15 15 17 17 14 11 18 23 24 22 25 24 31 23 17 15 18 18 16 18 20 14 20
14 14 15 16 17 17 17 16 15 15 14 14 13 13 13 12 10 9 9 12 13 13 15 2 5 12 21 19 15 13 15 16 19 19 19 19 4 13 13 12 15 19 21 21 22 16 22
16 17 18 19 20 21 20 18 17 16 15 14 14 14 11 13 10 9 6 7 9 8 6 5 3 3 15 21 16 14 10 10 13 17 16 14 13 11 10 12 14 18 11 16 16 20 22
18 18 19 20 21 22 21 19 17 16 15 14 14 12 11 12 11 9 6 5 4 2 2 4 6 3 15 17 4 17 12 11 8 4 17 10 13 10 11 13 13 18 18 22 14 13 21
19 19 20 21 21 22 21 19 18 17 15 14 13 9 12 10 11 8 7 5 3 2 3 1 0 1 11 20 6 15 19 15 11 11 13 14 16 17 16 16 15 16 24 18 12 14 7
19 20 21 22 22 21 22 21 19 17 14 13 10 8 9 8 9 9 8 7 3 4 2 3 5 8 6 11 17 11 18 25 22 17 22 16 16 22 22 22 18 21 20 9 5 3 7
21 21 22 23 23 22 21 20 20 18 14 12 8 7 8 8 7 8 8 10 5 4 6 6 6 12 16 8 18 16 17 20 22 26 23 14 14 17 21 22 15 14 16 15 7 4 9
22 22 23 25 26 25 23 21 20 20 16 13 9 7 7 7 7 7 8 11 3 5 6 9 5 10 18 5 10 7 21 24 24 25 27 10 12 7 14 18 13 15 18 19 20 8 5
23 24 25 27 28 28 26 23 21 20 16 12 9 7 6 4 4 6 10 13 9 7 8 2 5 3 4 6 5 5 10 6 19 29 27 28 29 18 11 14 15 17 23 14 11 4 4
23 24 25 27 28 30 29 26 21 18 17 13 9 7 9 7 4 6 9 9 10 8 5 6 4 5 9 8 6 6 5 2 3 6 8 24 34 36 24 15 15 17 13 14 10 11 7
24 26 27 28 30 32 29 28 23 18 16 13 9 7 12 10 6 4 3 5 10 8 6 6 9 8 13 13 10 6 7 10 14 10 5 6 16 40 41 33 24 20 18 20 20 11 13
24 26 26 28 30 30 28 27 24 19 17 12 8 11 12 13 9 8 8 8 9 9 6 5 4 9 12 16 12 6 10 13 15 10 6 6 4 17 32 34 34 27 25 18 20 28 24
26 28 26 28 31 30 29 27 24 21 18 13 6 12 16 16 16 16 15 12 11 10 10 10 6 7 10 12 14 10 13 13 13 13 13 15 10 9 9 18 21 18 19 16 9 9 24
27 27 28 30 31 31 28 26 26 24 19 13 9 13 18 13 22 23 21 15 17 19 14 15 14 13 12 13 14 15 16 18 19 17 18 19 14 15 12 12 9 12 14 14 13 7 6
29 30 31 33 31 30 28 27 25 23 20 15 13 13 15 22 20 24 22 21 21 22 18 17 14 13 13 14 16 17 19 19 19 14 12 12 9 12 17 16 16 17 16 15 13 11 7
30 30 31 33 31 30 29 26 22 20 19 15 14 15 16 18 20 21 23 25 25 25 23 19 17 14 11 11 11 14 22 25 23 18 12 11 8 10 11 16 19 20 21 21 19 16 12
31 31 32 33 31 29 27 24 22 21 16 14 13 14 14 18 17 18 18 21 22 22 23 25 21 20 19 19 20 21 20 22 24 25 23 18 16 16 10 8 7 10 14 12 14 22 21
35 31 31 33 31 29 24 20 20 18 17 15 14 13 14 18 17 16 18 20 21 23 22 22 21 21 21 23 23 25 25 26 30 32 30 23 19 20 15 15 18 13 8 8 9 14 17
36 30 32 32 31 27 21 19 18 17 18 16 15 15 15 17 16 14 16 19 23 22 21 24 21 21 22 22 20 19 12 18 9 9 17 18 15 22 17 9 5 6 16 13 12 12 7
34 31 32 31 28 22 18 18 16 16 17 18 17 16 17 19 14 12 14 18 19 19 19 19 17 14 19 16 17 18 17 11 8 9 16 19 13 14 19 20 12 21 12 11 10 8 12
31 30 31 28 22 17 17 16 16 16 17 19 19 18 19 19 17 19 17 21 21 20 19 17 18 15 15 12 10 11 9 11 12 11 11 14 7 8 6 12 15 16 21 21 10 8 7
29 29 26 20 15 15 16 16 17 17 17 18 20 20 19 18 16 19 19 19 16 12 17 18 18 12 5 6 7 8 8 10 11 11 12 11 11 11 9 8 5 14 25 19 18 14 13

GFSGBSN_700_spd_162.txt.gz
Wind_Speed
9 9 9 8 8 7 7 7 8 8 7 7 7 7 7 6 5 4 4 2 2 2 1 0 1 2 4 6 8 9 9 16 25 25 21 19 15 10 6 5 12 7 6 6 6 4 6
9 9 9 9 9 9 8 8 8 8 8 8 8 9 9 9 8 7 6 5 3 3 2 1 1 2 4 7 8 9 5 12 21 26 26 21 15 11 7 4 8 6 7 8 5 3 5
10 10 10 10 10 10 10 10 9 9 10 10 10 10 9 10 10 11 10 8 8 6 5 3 3 4 5 7 7 7 8 9 20 23 25 19 15 14 11 5 4 2 3 7 7 5 5
10 10 10 11 11 11 11 11 11 11 12 12 12 11 11 11 11 12 12 11 11 10 9 7 5 6 7 6 7 7 8 11 18 26 28 23 19 16 13 8 6 5 9 10 8 8 8
11 11 11 12 12 12 12 13 13 13 13 13 13 13 13 12 11 13 13 13 13 12 11 10 8 7 8 9 12 10 10 13 17 24 29 25 23 20 17 11 9 9 10 9 12 9 11
13 13 14 14 14 14 14 14 14 14 14 14 14 14 14 13 12 14 13 14 14 13 13 10 10 8 10 13 16 12 14 16 19 24 28 27 24 23 21 16 12 8 11 11 9 8 14
14 14 15 15 16 16 16 16 15 15 15 15 14 14 14 12 12 13 13 14 12 13 12 10 6 9 12 15 14 13 13 19 23 25 30 30 30 34 25 16 15 15 12 13 11 15 23
14 15 15 16 17 18 18 18 17 16 16 15 15 14 15 12 12 12 13 11 10 9 9 8 11 15 13 16 15 18 18 22 26 28 30 31 39 28 27 21 16 18 18 18 17 11 22
16 16 17 17 19 20 20 19 18 17 16 16 15 14 15 13 12 11 11 9 8 8 5 1 3 8 20 19 18 16 18 22 24 26 29 31 14 29 26 22 18 20 20 18 19 24 18
17 18 19 20 20 20 21 20 18 17 16 16 15 13 14 13 12 10 8 6 5 5 3 4 2 2 20 23 17 14 12 22 22 21 20 24 28 12 11 23 16 18 22 18 18 19 12
18 19 19 20 20 20 21 21 19 17 16 16 14 11 14 13 12 9 6 4 2 1 3 2 5 2 12 21 4 17 14 17 12 12 20 12 13 19 17 15 12 18 15 16 18 17 14
19 19 20 20 21 20 20 21 20 18 16 16 13 8 12 11 10 7 5 4 2 1 1 2 3 2 6 19 5 11 20 15 13 13 12 11 13 12 13 10 8 12 15 17 16 12 4
20 21 21 21 21 21 21 21 21 19 17 16 12 8 9 9 8 6 6 6 3 4 3 3 3 4 5 17 9 13 24 23 23 15 21 18 17 15 17 18 16 15 14 4 2 1 7
22 22 23 23 23 23 23 22 21 19 16 16 12 9 8 7 6 4 5 9 5 5 4 2 5 8 10 10 16 15 17 20 23 21 16 9 10 14 23 26 17 12 12 10 5 4 7
23 24 24 25 25 25 24 25 21 19 14 13 11 9 9 7 6 5 7 10 2 6 2 0 3 4 12 11 13 22 24 22 20 19 28 4 7 3 6 20 20 14 15 13 14 6 2
23 24 26 27 27 27 27 27 24 20 16 12 11 9 9 8 7 7 8 9 6 7 6 4 3 4 11 9 10 10 8 5 8 16 23 25 28 20 6 13 18 19 17 10 10 2 5
23 24 25 26 27 27 26 26 25 21 15 11 10 9 9 9 8 6 8 7 9 10 11 7 7 4 4 5 6 8 6 8 5 5 6 20 30 29 19 11 10 14 19 17 15 9 6
22 24 25 27 27 27 28 27 25 22 15 12 10 10 11 12 11 10 11 10 11 9 7 7 8 10 9 7 8 7 8 11 9 5 4 7 10 21 25 23 27 28 22 14 12 7 7
23 25 26 27 28 28 29 28 26 23 17 12 11 11 11 14 13 14 14 11 8 9 7 8 6 7 12 11 7 9 13 14 14 10 4 6 6 7 15 21 25 26 26 27 26 27 17
23 24 27 29 30 30 30 29 27 24 20 14 9 9 13 17 19 18 18 13 12 8 8 9 10 8 10 9 9 9 14 11 11 13 11 11 11 14 13 11 9 9 18 23 21 20 18
25 28 29 30 30 30 31 28 27 25 21 16 10 10 15 13 19 22 21 18 15 13 12 12 11 13 12 12 12 14 14 14 15 16 15 18 19 19 19 20 20 14 14 20 21 19 18
28 30 30 30 31 31 29 27 25 23 20 17 13 11 14 18 18 19 21 23 23 22 20 18 16 14 14 12 14 13 12 13 15 13 10 12 13 14 19 19 21 22 18 17 18 18 16
30 32 31 33 32 30 27 26 24 21 20 17 13 11 12 15 18 20 22 22 23 24 21 22 20 18 13 14 15 17 17 16 15 16 19 15 14 10 9 15 18 23 26 24 24 21 20
31 32 32 33 31 29 28 26 23 21 18 15 13 13 12 14 13 15 18 21 22 23 25 22 19 19 16 17 17 19 19 19 19 18 18 16 14 15 15 15 7 15 15 18 21 22 24
32 31 31 32 30 29 29 27 21 19 16 14 13 13 14 16 14 14 15 17 19 21 22 23 20 19 19 19 19 19 19 20 24 25 23 22 20 22 21 20 22 18 7 8 6 11 11
35 31 32 28 30 30 27 23 19 17 15 13 13 13 14 16 14 14 15 17 18 19 20 20 21 22 21 20 17 17 10 13 9 7 15 18 23 25 18 10 9 23 28 23 19 18 12
28 30 29 29 30 27 23 18 17 16 16 15 15 16 16 17 13 13 15 17 17 17 17 16 16 17 18 17 18 21 23 19 13 15 16 17 15 16 19 17 16 16 14 18 15 15 19
28 26 28 30 26 21 16 16 17 16 17 17 17 17 17 18 16 18 16 16 17 17 19 17 15 13 14 14 12 12 12 14 17 18 15 15 11 13 12 11 10 18 27 27 21 15 19
24 24 26 24 21 17 16 18 18 18 17 18 19 19 17 17 15 18 18 18 20 19 17 13 14 10 7 6 7 8 9 11 15 16 18 19 21 18 14 9 8 12 15 23 29 29 22

GFSGBSN_700_spd_165.txt.gz
Wind_Speed
9 9 8 8 8 8 7 7 6 6 6 6 6 5 5 4 4 3 2 3 3 3 4 4 5 6 7 9 9 12 15 19 21 22 18 17 13 8 5 5 10 7 6 7 8 4 3
10 10 10 9 9 9 8 8 7 7 7 7 7 6 6 6 6 5 4 4 4 4 4 5 6 6 7 9 10 10 10 16 19 23 21 19 13 9 7 5 6 9 5 6 5 5 5
10 10 10 10 10 10 10 9 9 9 8 8 9 8 8 8 8 7 6 6 6 6 5 5 6 7 7 10 11 12 9 12 20 24 22 20 15 12 11 8 7 4 4 6 7 5 6
12 12 12 12 11 11 11 10 11 10 10 10 10 10 10 9 9 9 8 8 8 8 8 8 7 8 8 9 11 12 12 11 20 26 26 23 18 15 12 10 8 7 8 8 5 7 8
13 13 13 14 14 13 13 12 12 12 12 11 11 10 10 10 11 10 9 10 9 9 9 9 9 9 9 11 14 13 14 14 17 26 29 26 21 19 16 12 10 9 8 10 10 6 8
14 14 15 15 16 16 15 15 14 13 13 13 12 12 11 11 11 11 9 9 9 9 9 9 10 10 12 15 17 16 14 15 18 26 29 28 24 22 22 17 11 7 8 10 9 9 17
14 14 15 15 16 16 17 16 15 15 14 14 13 12 12 11 11 11 10 8 7 8 7 9 7 16 9 17 19 18 16 16 19 25 30 31 29 30 25 20 15 14 15 16 13 14 17
15 15 15 16 16 17 18 18 16 15 14 13 13 13 12 11 11 10 9 7 4 4 5 9 13 13 11 20 20 19 18 19 22 26 29 29 36 29 24 21 16 14 18 20 17 10 23
15 16 17 17 18 18 18 19 19 17 15 14 13 13 13 11 11 9 7 5 3 1 3 3 6 14 16 17 19 19 19 20 22 25 27 26 15 32 26 25 24 21 20 22 19 19 22
16 17 17 18 18 19 19 19 19 18 16 15 13 12 13 10 10 8 5 2 2 1 4 3 2 8 21 19 16 16 16 19 21 23 24 23 27 8 19 32 24 23 22 21 15 15 10
17 18 18 19 19 19 20 20 19 18 18 16 13 12 11 9 8 6 5 3 1 5 2 3 4 1 13 22 4 18 14 18 19 17 20 12 11 28 23 16 19 20 17 11 10 14 12
18 19 20 21 21 20 20 20 20 18 17 17 14 10 9 7 6 5 5 4 3 3 2 3 3 3 10 24 8 11 16 16 16 13 15 19 12 7 12 14 10 11 9 11 12 10 7
19 21 22 22 23 22 21 20 21 18 17 16 14 10 7 5 4 4 5 6 3 3 6 5 4 2 8 22 11 8 20 22 17 12 15 14 16 13 14 16 16 16 9 6 5 5 9
22 23 23 23 24 23 22 21 21 20 16 16 12 10 8 6 4 5 8 9 5 6 8 6 7 7 9 13 20 9 18 24 24 15 5 5 4 10 18 22 15 19 15 10 7 7 6
23 23 23 24 23 23 23 22 21 21 17 15 13 10 8 6 6 6 9 9 4 9 8 6 6 8 12 15 14 17 18 22 20 17 16 5 6 1 6 8 18 18 15 13 9 7 5
22 23 23 23 23 23 23 22 21 21 19 13 12 10 9 7 6 7 10 9 8 11 9 7 7 6 12 18 15 17 15 11 25 26 19 16 16 16 8 5 12 20 15 11 8 9 11
20 21 23 23 23 25 25 24 22 19 18 13 10 10 10 9 6 7 9 10 12 12 12 9 8 6 10 15 17 20 10 10 11 9 14 27 22 13 11 11 12 16 16 19 14 10 11
18 20 22 23 25 27 27 25 24 20 17 15 10 9 10 11 10 10 11 11 12 13 13 13 12 12 10 10 11 12 11 14 14 11 8 14 12 15 18 15 17 19 17 18 14 8 7
18 20 23 26 27 28 28 27 25 24 20 14 10 10 12 12 14 16 14 11 11 12 14 12 11 14 14 15 11 13 14 14 15 13 9 11 10 7 7 10 16 19 23 23 22 23 19
19 23 25 27 28 28 28 28 26 24 21 16 11 8 10 15 18 18 15 14 12 10 12 14 13 11 12 13 16 9 16 17 18 15 12 11 14 12 16 11 11 9 13 19 24 19 18
22 24 27 28 28 30 29 28 25 22 19 16 12 9 11 12 14 19 19 16 12 11 11 11 12 13 13 13 14 15 15 17 17 17 18 19 17 20 22 22 23 24 20 19 22 23 20
25 29 29 30 29 30 28 26 24 21 18 15 13 11 12 15 17 17 18 19 20 20 18 17 17 16 16 13 15 14 18 21 20 17 17 14 14 15 18 20 26 28 26 21 21 20 21
28 29 30 31 30 29 27 26 24 21 19 15 12 11 12 12 13 14 18 19 19 19 17 18 18 17 15 17 17 18 18 20 21 17 17 17 14 13 17 14 22 26 23 25 24 24 23
29 31 32 31 28 26 26 26 24 20 16 15 13 12 11 11 10 11 14 15 17 19 20 18 17 16 17 17 19 20 20 19 19 19 18 17 14 15 15 12 17 20 18 19 22 24 28
33 35 33 33 27 25 26 25 22 19 15 13 12 12 12 13 11 12 13 14 16 18 20 20 19 21 20 20 19 20 21 24 26 24 22 20 19 16 19 21 23 20 14 14 9 15 17
35 38 33 30 25 25 26 22 18 15 14 12 12 13 14 14 11 13 14 15 16 17 17 19 20 20 19 19 17 14 13 12 9 11 21 26 28 27 19 18 17 22 20 30 26 25 21
34 33 26 25 25 27 23 19 15 14 14 14 14 14 15 16 12 14 15 16 17 16 16 14 13 15 17 17 16 18 21 18 18 20 18 21 22 25 26 22 19 17 14 20 18 16 19
35 27 22 23 26 23 20 18 15 15 15 16 17 15 16 17 16 17 15 14 14 13 14 14 13 14 14 16 13 13 12 14 17 20 19 21 16 17 15 16 17 16 21 24 18 18 21
25 21 21 23 23 20 19 18 18 18 16 17 18 17 17 18 15 18 17 18 17 17 18 16 11 9 8 7 10 9 10 12 18 17 19 20 23 17 15 12 14 16 21 23 25 26 26

GFSGBSN_700_spd_168.txt.gz
Wind_Speed
9 9 9 9 8 8 7 6 6 5 4 4 4 3 3 3 3 3 4 4 4 5 5 6 7 7 9 10 12 9 16 19 19 18 14 11 10 5 3 4 6 6 6 7 6 6 5
9 9 9 9 8 8 7 7 6 6 6 5 5 4 4 3 4 4 5 6 6 6 6 7 7 8 9 10 10 9 13 15 17 18 16 14 12 10 6 4 4 7 4 6 7 8 7
10 10 10 10 9 9 8 8 7 7 7 6 6 5 5 5 5 5 5 7 8 8 8 8 8 9 9 12 11 11 10 13 18 20 19 18 16 10 8 6 7 6 5 6 5 7 8
12 12 12 12 11 11 10 9 9 8 8 8 7 6 6 5 5 5 5 7 8 9 10 9 10 10 11 10 11 14 13 11 18 22 24 23 19 14 12 11 8 5 5 2 6 6 7
12 12 12 12 12 12 12 11 10 9 9 8 8 8 7 7 6 6 5 7 8 9 10 12 12 11 13 13 14 16 15 14 17 23 27 24 20 14 13 10 8 6 6 5 4 7 5
12 12 12 13 13 13 13 12 12 11 10 9 9 9 8 8 7 7 5 5 7 9 11 12 13 10 12 16 17 16 16 16 16 22 25 25 19 16 15 12 12 5 6 5 6 7 10
13 13 13 14 14 14 14 14 13 12 11 10 9 9 8 8 7 6 5 4 5 8 10 14 13 20 10 17 19 19 17 15 16 20 22 23 21 23 16 15 14 10 11 11 10 10 13
12 13 14 14 15 15 15 15 15 14 12 11 11 10 9 8 7 5 5 3 5 7 8 12 17 13 16 17 22 23 19 15 18 18 19 17 25 18 16 17 14 13 13 12 10 8 14
14 14 15 15 16 16 17 16 15 15 14 13 12 12 10 9 7 6 4 4 3 5 5 7 12 16 15 15 16 20 18 15 15 16 19 19 8 20 18 17 17 17 17 15 14 14 15
14 15 16 16 16 17 17 18 17 16 16 15 13 12 11 9 7 5 4 3 2 4 4 4 6 13 17 17 15 19 18 13 11 15 13 18 18 13 18 23 19 18 15 17 16 12 12
15 16 17 18 18 18 18 18 18 17 16 15 14 13 10 7 7 6 6 5 3 7 5 5 7 8 14 18 8 17 17 17 12 11 15 11 10 18 19 14 17 21 17 15 14 14 14
16 18 19 19 20 19 19 19 19 18 17 15 14 13 9 6 6 6 6 6 5 3 3 5 5 5 13 22 9 10 17 16 14 13 15 17 12 8 15 19 20 14 13 12 13 14 19
18 19 19 20 20 20 19 19 19 17 18 15 13 11 8 6 6 5 6 7 2 7 5 5 5 6 13 19 12 11 20 21 14 15 15 13 17 17 12 9 11 15 12 14 13 14 15
19 19 20 20 21 20 19 18 18 17 17 15 11 10 8 5 5 5 7 7 8 4 5 8 7 8 12 16 15 12 15 20 21 15 5 11 13 17 16 20 16 17 18 19 10 11 12
19 19 19 20 20 20 19 18 18 17 15 15 11 9 8 6 5 6 9 9 4 6 6 6 5 10 14 15 12 16 16 20 19 19 12 8 8 7 9 13 18 18 19 20 24 20 16
18 18 19 20 20 21 20 19 17 17 15 14 11 9 7 7 5 7 10 12 7 12 9 8 9 9 13 16 16 16 14 15 20 19 18 8 11 10 8 10 13 23 14 17 21 16 16
16 16 18 19 21 22 22 21 19 17 16 13 10 9 9 7 6 9 10 11 12 13 14 8 9 8 10 13 18 17 14 11 16 16 22 20 16 11 11 16 14 11 21 21 18 15 11
14 16 18 21 22 23 24 23 21 17 16 14 10 4 9 9 8 11 10 11 15 9 14 12 15 10 10 12 15 18 18 12 16 12 13 17 14 19 22 17 15 15 18 23 24 23 22
14 16 19 22 24 25 24 25 24 20 16 13 9 10 12 11 7 11 13 10 13 9 9 8 10 12 12 12 13 16 15 18 15 16 12 14 13 19 20 17 19 19 21 21 22 23 26
17 20 22 26 26 26 26 26 24 21 18 14 10 3 9 13 17 13 9 10 10 13 13 16 13 12 12 15 16 11 17 15 19 16 19 15 18 18 21 12 3 7 10 16 22 29 25
20 22 25 27 27 28 27 27 25 22 19 15 10 8 9 6 8 16 17 13 8 9 12 13 10 10 10 13 15 17 16 16 18 21 19 16 19 20 22 25 22 21 21 20 20 21 26
21 24 26 26 28 30 29 26 23 22 19 15 12 10 10 14 15 14 12 10 12 14 15 11 12 12 10 13 15 11 15 16 17 15 17 18 23 21 23 23 25 29 28 27 25 25 25
24 26 27 29 30 29 28 27 24 23 19 16 12 11 11 12 10 8 10 9 8 16 13 17 19 19 14 15 22 22 22 18 15 17 19 20 20 19 24 21 22 30 25 28 31 29 26
26 30 31 30 31 29 27 24 23 20 16 13 12 10 8 6 9 8 13 13 14 17 17 11 15 14 17 21 21 21 22 20 20 19 19 18 20 23 26 23 23 26 23 20 20 23 27
29 30 29 29 31 28 23 22 19 17 13 11 10 10 9 9 10 11 13 14 14 16 17 18 18 20 21 18 15 17 20 23 25 25 24 24 23 25 28 28 27 21 12 15 17 22 16
32 30 29 32 26 20 20 19 16 14 13 11 10 11 11 11 7 10 13 14 14 12 13 14 17 16 16 13 15 19 19 14 14 20 24 28 27 27 28 26 23 25 24 25 25 32 20
32 33 31 30 20 20 21 19 16 13 14 13 11 11 12 13 12 11 13 13 14 14 13 12 14 10 12 12 18 21 22 18 24 21 13 16 26 32 32 33 35 27 19 17 20 20 20
28 29 30 23 20 20 20 19 17 15 16 17 15 14 13 14 16 15 12 11 11 11 8 10 8 10 10 13 14 15 15 17 20 24 23 25 26 27 27 30 31 20 17 23 16 15 20
24 24 22 18 18 20 19 18 16 16 15 16 17 15 15 15 15 16 16 16 15 15 16 15 14 11 7 7 11 11 13 15 17 21 16 24 24 26 24 21 15 17 19 24 28 32 26

GFSGBSN_700_spd_171.txt.gz
Wind_Speed
8 8 8 7 7 6 6 5 4 3 3 2 2 3 3 4 5 5 5 5 5 6 6 7 7 7 8 9 8 4 12 17 16 13 10 9 9 6 4 4 4 3 4 4 4 3 2
8 8 8 7 7 6 6 5 4 4 3 3 3 3 3 4 5 6 6 6 6 6 6 6 7 7 8 8 12 9 9 13 15 13 13 12 9 9 8 5 4 4 2 1 2 3 4
10 10 9 8 8 7 6 6 5 4 4 3 3 3 3 4 4 5 7 8 8 8 8 8 8 9 10 11 11 9 8 10 14 15 14 13 11 8 3 5 7 3 3 5 1 3 3
10 10 10 9 9 9 8 7 6 6 5 5 4 4 4 4 4 5 7 8 9 10 10 10 11 11 11 12 12 11 10 9 14 19 16 13 15 10 10 7 7 6 6 4 1 2 8
10 10 10 10 10 10 10 9 8 7 7 6 6 5 5 5 5 4 6 8 10 11 12 13 13 12 8 12 13 14 14 11 12 19 22 18 20 13 8 10 9 10 11 2 2 3 4
10 11 11 11 11 11 12 12 11 9 9 8 7 7 5 5 5 5 5 6 8 11 13 13 14 10 14 11 16 14 16 14 11 16 19 20 14 14 14 14 16 6 7 6 5 3 6
10 11 11 11 12 12 12 12 12 12 11 10 9 9 8 6 5 5 5 5 4 8 13 11 9 10 7 13 13 16 16 14 13 14 15 14 16 20 16 14 15 10 11 10 9 6 8
11 11 12 12 13 13 13 13 12 12 12 11 10 10 9 8 7 6 6 6 7 10 7 15 19 16 13 8 13 15 17 15 15 16 15 16 22 17 15 16 15 15 14 13 11 10 9
11 12 13 13 14 15 15 14 13 13 13 12 11 9 9 8 8 7 7 7 6 6 5 11 14 17 13 16 13 18 18 15 13 17 17 21 8 14 18 18 16 16 16 14 12 13 15
12 13 14 15 15 15 16 16 15 14 13 12 12 11 9 8 8 8 7 6 5 4 4 11 9 13 17 10 13 16 18 15 13 16 16 19 20 15 16 21 17 19 13 15 15 14 15
13 14 16 16 17 17 17 17 17 15 15 13 11 11 9 6 6 8 7 7 5 7 6 9 10 14 13 15 5 19 18 19 14 12 16 17 14 21 17 18 16 22 17 16 16 17 17
14 15 16 17 18 18 18 18 17 16 15 14 11 9 9 5 5 6 7 7 7 3 5 7 9 10 16 21 8 12 18 20 14 14 17 19 10 14 18 18 18 12 12 15 16 17 20
15 16 17 17 18 18 18 19 19 17 16 14 12 9 7 5 4 5 6 8 4 12 4 7 7 12 15 19 17 13 19 23 20 17 18 18 22 19 15 11 16 19 17 17 13 13 14
16 16 17 17 18 18 18 19 19 18 17 15 13 9 7 5 4 5 8 6 10 4 4 5 8 9 15 16 19 15 17 21 22 18 16 14 18 21 19 20 14 14 19 20 10 11 10
16 16 16 17 18 18 19 19 19 18 17 14 12 8 7 6 5 7 11 11 7 3 5 5 8 11 15 17 14 16 19 19 20 22 19 10 12 7 14 17 17 19 19 17 22 23 18
15 15 16 16 18 19 19 19 18 18 15 14 11 8 7 7 6 10 10 17 9 10 7 8 12 11 16 18 20 19 19 15 20 21 20 13 14 9 10 11 16 19 19 16 21 15 15
14 14 15 17 19 20 20 19 18 18 16 12 10 4 6 6 8 11 13 9 11 12 9 9 11 14 13 13 19 21 18 19 14 20 20 19 15 10 11 15 16 13 15 22 21 20 14
12 13 16 18 20 22 22 21 19 17 14 11 7 2 14 7 7 9 13 15 17 9 10 11 12 13 15 14 18 19 21 19 17 18 19 22 17 22 23 16 16 18 19 16 21 21 19
12 15 17 19 21 22 23 22 20 18 14 10 8 7 12 10 7 11 14 15 15 11 12 11 12 11 14 18 16 17 19 14 11 15 15 16 19 25 21 21 21 23 21 21 21 23 25
15 16 18 21 22 22 22 22 21 19 16 13 8 3 7 8 12 13 11 16 14 13 14 14 12 12 14 17 18 19 18 13 13 17 23 20 19 23 22 24 6 9 18 22 24 25 23
15 17 20 23 24 26 26 24 23 22 17 13 6 6 11 4 5 10 13 13 12 14 14 12 10 14 14 17 18 21 22 19 17 18 19 22 26 26 27 27 27 22 18 19 18 20 21
18 21 23 26 29 27 24 23 24 23 18 14 10 9 11 14 13 13 12 12 14 15 16 15 13 13 13 15 16 17 15 23 25 17 18 23 28 27 30 27 27 29 28 28 28 29 30
22 24 28 31 29 26 25 23 23 20 16 13 12 13 11 8 7 9 9 11 13 12 15 15 16 15 15 15 20 16 14 15 14 20 19 18 25 26 31 29 30 35 32 31 32 31 30
24 29 27 30 26 26 26 25 21 17 13 10 9 8 7 5 10 9 12 10 12 12 14 12 11 13 13 25 22 21 23 26 25 26 23 25 25 25 31 29 23 31 27 26 27 27 27
27 25 29 27 28 26 24 19 17 14 12 10 9 8 7 7 9 11 11 12 12 14 16 17 17 17 17 17 17 20 22 24 28 29 28 27 27 30 31 32 35 31 22 22 25 27 23
28 29 31 31 29 27 20 18 16 15 13 11 9 9 9 7 2 15 12 11 11 12 13 16 13 14 14 13 15 21 22 20 22 27 26 28 29 32 30 31 27 28 20 16 17 26 23
25 26 26 26 26 22 19 18 15 15 15 13 12 11 11 12 11 13 6 10 8 9 11 12 13 9 10 13 18 21 23 20 25 23 17 19 24 31 35 36 37 32 26 20 18 23 15
23 22 22 24 22 15 16 17 17 15 14 15 13 12 13 14 15 17 15 15 12 9 7 8 10 12 10 14 16 19 20 21 22 24 25 25 24 24 25 33 36 27 27 30 20 13 7
20 22 21 18 15 17 17 17 16 15 15 15 16 12 13 15 15 16 16 17 17 17 21 13 12 8 7 8 9 14 16 16 17 22 17 25 28 32 28 25 19 12 13 18 16 15 11